SCP
0 0 0 0 0 0 0 0 0 0 0 0 0 0 0 0 0 0 0 0 0 0 0 0 0 0 0 0 -0 0 0 0 0 0 0 0 0 0 0 0 0 0 0 0 0 0 0
0 0 0 0 0 0 0 0 0 0 0 0 0 0 0 0 0 0 0 0 0 0 0 0 0 0 0 0 0 0 0 -0 0 0 0 0 0 0 0 0 0 0 0 0 0 0 0
0 0 0 0 0 0 0 0 0 0 0 0 0 0 0 0 0 0 0 0 0 0 0 0 0 0 -0 -0 0 0 0 0 0 0 0 0 0 0 0 0 0 0 0 0 0 0 0
-0 -0 0 0 0 0 0 0 0 0 0 0 0 0 0 0 0 -0 -0 0 0 0 0 0 0 0 -0 0 0 0 0 0 0 0 0 0 0 0 0 0 0 0 0 0 0 0 0
-0 -0 -0 0 0 0 0 0 0 0 0 0 0 0 0 0 -0 -0 0 0 0 0 0 0 0 0 0 0 0 0 0 0 0 0 0 0 0 0 0 0 0 0 0 -0 0 0 0
-0 -0 -0 0 0 0 0 0 0 0 0 0 0 0 0 0 -0 -0 0 0 0 0 0 0 0 0 0 0 0 0 0 0 0 0 0 0 0 0 0 0 0 0 0 0 0 0 -0
-0 -0 0 0 0 0 0 0 0 0 0 0 0 0 0 0 0 0 0 0 0 0 0 0 0 0 0 0 0 0 0 0 0 0 0 0 0 0 0 0 -0 -0 0 0 0 0 0
-0 0 0 0 0 0 0 0 0 0 0 0 0 0 0 0 0 0 0 0 0 0 0 0 0 0 0 0 0 0 0 0 0 0 0 0 0 0 0 -0 0 -0 0 0 0 0 0
0 0 0 0 0 0 0 0 0 0 0 0 0 0 0 0 0 0 0 0 0 0 0 0 0 0 0 0 0 0 0 0 0 0 0 0 0 0 0 0 0 0 0 0 0 0 0
0 0 0 0 0 0 0 -0 -0 0 0 0 0 0 0 0 0 0 0 0 0 0 0 0 0 0 0 -0 0 0 0 0 0 0 0 0 0 0 0 0 0 0 0 0 0 0 0
0 0 0 0 0 0 0 0 -0 0 0 0 0 0 0 0 0 0 0 0 0 0 0 0 0 0 0 0 -0 0 0 0 0 0 0 0 0 0 0 0 0 0 0 0 0 0 0
0 0 0 0 0 0 0 0 0 0 0 0 0 0 0 0 0 0 0 0 0 0 0 0 0 0 0 0 0 0 0 0 0 0 0 -0 0 0 0 0 0 0 0 0 0 0 0
0 0 0 0 0 0 0 0 0 0 0 0 0 0 0 0 0 0 0 0 0 0 0 0 0 0 0 0 0 -0 0 0 0 0 0 0 0 0 0 0 0 0 0 0 0 0 0
0 0 0 0 0 0 0 0 0 0 0 0 0 0 0 0 0 0 0 0 0 0 0 0 0 0 0 0 -0 0 0 0 0 0 0 0 0 0 0 0 0 0 0 0 0 0 0
0 0 0 0 0 0 0 0 0 0 0 0 0 0 0 0 0 0 0 0 0 0 0 0 0 0 0 0 0 0 0 0 0 0 0 0 0 0 0 0 0 0 0 0 0 0 0
0 0 0 0 0 0 0 0 0 0 0 0 0 0 0 0 0 0 0 0 0 0 0 0 0 0 0 0 0 0 0 0 0 0 0 0 0 0 0 0 0 0 0 0 0 0 -0
0 0 0 0 0 0 0 0 0 0 0 0 0 0 0 0 0 0 0 0 0 0 0 0 0 0 0 0 0 0 0 0 0 0 0 0 0 0 0 0 0 0 0 0 0 0 0
0 0 0 0 0 0 0 0 0 0 0 0 0 0 0 0 0 0 0 0 0 0 0 0 0 0 0 0 0 0 0 0 0 0 0 0 0 0 0 0 0 0 0 0 -0 0 -0
0 0 0 0 0 0 0 0 0 0 0 0 0 0 0 0 0 0 0 0 0 0 0 0 0 0 0 0 0 0 0 0 0 0 0 0 0 0 0 0 0 0 -0 0 -0 -0 -0
0 0 0 0 0 0 0 0 0 0 0 0 0 0 0 0 0 0 0 0 0 0 0 0 0 0 0 0 0 0 0 0 0 0 0 0 0 0 0 0 -0 -0 -0 0 -0 -0 0
0 0 0 0 0 0 0 0 0 0 -0 0 0 0 0 0 0 0 0 0 0 0 0 0 0 0 -0 0 0 0 0 0 0 0 0 0 0 0 0 -0 -0 -0 0 -0 -0 0 0
0 0 0 0 0 0 0 0 0 0 0 0 0 0 0 0 0 0 0 0 0 0 0 0 0 0 -0 0 0 0 0 0 0 0 0 0 0 0 0 0 -0 0 -0 -0 -0 -0 -0
0 0 0 0 0 0 0 0 0 0 0 0 0 0 0 0 0 0 0 0 0 0 0 0 0 0 -0 -0 0 0 0 0 0 0 0 0 0 0 0 0 0 -0 -0 0 0 -0 0
0 0 0 0 0 0 0 0 0 0 0 0 0 0 0 0 0 0 0 0 0 0 0 0 0 0 -0 0 0 0 0 0 0 0 0 0 0 0 0 0 -0 -0 0 0 0 0 0
0 0 0 0 0 0 0 0 0 0 0 0 0 0 0 0 0 0 0 0 0 0 0 0 0 0 -0 0 -0 0 0 0 0 0 0 0 0 0 0 0 -0 0 0 -0 0 0 0
0 0 0 0 0 0 0 0 0 0 0 0 0 0 0 0 0 0 0 0 0 0 0 0 0 0 0 -0 -0 0 -0 0 0 -0 0 0 0 0 0 0 -0 0 -0 0 0 0 0
0 0 0 0 0 0 0 0 0 0 0 0 0 0 0 0 0 0 0 0 0 0 0 0 0 0 0 -0 -0 0 0 0 0 -0 -0 -0 0 -0 0 0 -0 -0 -0 0 0 0 0
0 0 0 0 0 0 0 0 0 0 0 0 0 0 0 0 0 0 0 0 0 0 0 0 0 0 0 -0 -0 -0 0 0 0 0 -0 -0 -0 0 0 0 0 -0 -0 0 0 0 0
0 0 0 0 0 0 0 0 0 0 0 0 0 0 0 0 0 0 0 0 0 0 0 0 0 0 -0 -0 -0 -0 0 0 0 0 0 0 0 0 0 0 0 0 -0 0 0 0 0
Wind_Speed_500mb
52 52 51 51 51 51 52 53 53 53 53 53 55 57 58 58 57 49 41 35 29 28 29 29 32 30 27 12 3 3 16 17 17 18 13 10 10 9 10 7 13 26 35 28 23 23 28
54 54 55 54 55 55 56 56 57 57 56 57 61 64 63 58 47 35 33 32 31 32 32 30 27 23 18 5 6 5 4 7 8 5 7 7 6 9 8 10 13 5 13 21 31 49 36
55 56 56 57 57 58 59 60 60 60 60 63 66 68 62 48 34 29 30 36 32 37 27 24 26 17 4 9 10 7 4 4 7 10 7 4 10 11 1 11 13 18 24 18 28 31 29
57 58 59 59 60 61 62 63 63 63 65 68 70 65 51 39 32 25 34 42 33 35 19 25 22 6 2 11 13 12 18 24 21 21 19 16 16 14 13 13 19 20 18 16 3 22 36
58 60 62 63 64 64 65 64 64 65 68 70 67 52 42 40 30 28 36 39 39 22 20 29 9 8 2 15 29 41 33 23 24 24 20 20 13 12 8 11 12 9 18 16 13 10 15
59 62 63 65 66 67 66 66 66 67 70 70 61 43 42 33 30 30 32 37 45 18 29 12 8 6 5 18 41 46 28 25 16 17 10 15 13 15 11 15 17 13 16 16 21 8 26
60 62 64 66 69 70 69 69 69 69 71 69 59 39 35 31 28 30 30 28 29 10 43 16 20 15 30 28 36 43 31 22 16 8 14 14 17 27 38 35 35 27 32 32 25 20 22
61 62 64 66 69 72 74 72 72 72 72 67 61 32 28 32 21 30 29 21 17 22 22 23 8 19 16 21 50 32 21 8 9 16 5 11 34 40 40 36 38 40 42 38 33 29 29
60 61 63 65 68 73 76 77 76 76 75 70 64 35 26 33 21 29 30 27 29 24 9 16 12 9 12 39 35 29 6 14 17 23 22 31 37 18 25 33 39 42 43 32 39 21 33
59 61 62 65 67 72 76 78 80 79 78 72 67 42 20 32 20 33 24 36 31 12 5 9 5 2 14 51 8 36 19 12 11 24 26 30 28 36 38 45 37 46 36 36 35 19 19
58 60 63 65 68 72 76 79 83 81 80 73 66 34 18 28 29 31 39 36 13 6 7 27 6 12 56 16 43 9 25 16 30 36 22 22 19 14 27 39 36 44 32 30 32 32 29
56 60 65 67 69 71 77 82 88 84 83 73 60 20 20 27 31 37 40 25 2 3 5 13 12 40 42 41 10 18 27 15 22 17 26 51 46 29 40 34 27 8 18 16 20 19 20
57 59 64 66 68 73 81 84 89 88 83 72 52 10 18 29 31 39 39 11 3 7 14 14 25 37 42 19 22 24 32 26 16 9 9 16 29 28 21 22 11 22 18 9 13 14 28
57 59 62 65 68 75 82 87 90 90 83 71 43 6 17 31 31 34 33 3 8 4 16 26 29 43 10 23 23 22 26 27 12 20 8 7 12 19 21 24 16 27 34 12 15 17 24
57 58 59 63 68 77 82 86 90 92 84 75 36 10 14 33 31 28 12 9 5 13 19 24 35 11 15 26 13 22 16 18 8 17 7 9 13 12 24 24 16 6 23 21 8 22 17
60 57 57 62 68 77 81 86 89 93 83 74 38 4 20 37 27 21 9 3 5 7 19 13 10 5 33 40 27 24 11 9 8 10 16 4 16 17 6 16 21 8 12 12 10 10 20
59 62 55 60 69 76 82 87 88 92 84 74 29 4 26 37 16 15 6 6 10 18 24 7 14 17 25 20 21 10 14 23 15 13 14 11 13 3 9 15 18 9 7 8 10 16 11
53 57 62 66 68 74 80 85 86 88 85 76 23 5 31 35 10 7 4 11 12 13 6 10 11 16 18 28 12 14 14 13 31 23 8 15 7 10 13 10 6 23 14 30 18 19 15
50 53 57 63 68 71 76 80 80 80 78 70 30 11 17 26 7 8 13 9 9 10 16 8 12 10 18 12 16 13 20 17 39 17 10 8 7 4 7 10 1 10 28 30 25 9 21
50 51 54 59 65 67 73 74 76 73 68 54 20 9 12 21 14 4 10 7 14 19 18 12 19 21 20 32 21 21 35 18 53 42 27 14 8 9 12 9 2 10 21 27 29 13 13
48 48 50 57 63 67 69 74 73 70 63 39 21 6 6 10 5 13 6 6 12 14 11 16 9 29 39 17 36 9 43 28 24 13 11 5 7 6 24 27 26 21 17 18 23 28 13
50 50 52 57 60 66 68 68 66 65 60 28 14 11 10 12 16 15 2 3 10 15 7 13 14 42 43 19 24 47 49 32 8 11 10 6 7 12 8 9 15 15 20 21 26 20 24
51 52 53 54 57 64 71 65 59 57 53 19 23 15 6 10 7 7 3 5 15 25 17 38 38 35 35 39 66 77 55 28 16 12 11 8 11 9 8 3 10 12 6 17 18 15 22
52 54 54 55 55 59 65 60 57 48 45 34 23 17 5 8 8 8 13 29 31 21 20 36 41 22 42 83 58 12 5 12 14 12 15 11 13 7 5 5 6 9 22 13 20 23 26
55 57 56 55 49 57 61 66 54 40 36 31 23 10 5 10 14 24 16 23 32 23 14 27 23 43 54 37 13 11 4 7 4 17 21 15 8 7 6 6 4 9 17 13 14 17 28
60 57 55 51 48 52 60 59 57 38 32 29 23 13 5 12 9 14 16 17 9 11 14 15 33 42 29 11 10 13 12 12 14 29 23 16 11 6 6 4 7 8 31 39 4 5 24
64 60 55 50 47 53 59 59 50 35 30 27 23 14 5 13 18 7 11 11 9 9 10 21 30 13 22 15 12 9 7 10 14 19 16 14 11 12 12 5 5 19 49 25 10 10 36
63 58 56 52 50 51 55 51 47 39 27 27 22 20 16 14 42 22 19 24 21 14 6 19 19 5 6 10 9 7 5 8 7 5 16 10 14 8 8 6 3 50 31 15 9 41 32
62 56 58 53 50 51 51 50 52 40 27 28 24 15 13 28 40 66 57 42 43 33 20 10 10 9 11 5 6 6 5 6 9 7 7 4 8 9 7 6 16 41 34 49 30 16 18
Wind_Direction_500mb
29 27 24 22 19 17 16 15 13 10 7 1 355 351 349 346 344 346 347 354 358 353 348 339 332 336 348 346 42 240 320 312 306 295 278 245 221 203 236 236 234 241 250 247 258 280 284
27 25 22 21 18 16 15 13 11 9 6 0 354 349 345 344 351 359 0 4 354 345 339 336 338 341 352 22 24 323 344 332 322 282 265 245 219 246 267 250 246 307 296 274 264 257 261
27 24 21 19 18 16 14 12 9 7 4 359 353 348 345 352 6 6 6 358 351 342 339 344 340 338 47 63 12 333 332 341 264 247 240 282 229 215 101 278 266 284 283 277 249 242 242
25 23 21 19 17 16 14 11 8 6 3 358 355 352 358 10 11 12 1 355 347 342 347 341 338 359 187 19 8 318 292 304 289 253 255 293 240 220 224 258 266 276 280 276 329 228 224
24 22 20 19 17 15 13 11 9 5 2 359 358 2 10 8 18 10 1 358 351 349 341 335 351 342 239 8 356 339 321 299 293 272 261 268 224 231 202 248 277 245 261 250 276 265 230
23 21 19 18 16 14 13 12 8 4 1 359 359 3 3 13 16 8 3 359 352 330 342 346 359 322 211 326 342 345 337 322 275 263 262 202 208 222 218 222 252 250 254 255 260 236 228
22 20 19 18 16 15 13 11 7 3 0 359 356 357 0 3 10 6 3 1 360 335 322 276 293 268 298 321 331 323 317 305 268 218 238 208 226 237 244 236 249 261 262 262 261 272 285
21 19 18 16 14 14 12 9 6 2 358 357 352 348 359 354 341 356 351 7 349 314 300 309 286 286 329 337 318 318 313 257 212 258 230 243 246 254 256 253 248 252 257 259 263 250 257
19 17 16 14 12 11 8 6 3 1 357 354 349 340 349 350 346 345 346 343 334 326 286 301 308 293 341 333 308 308 239 293 240 265 257 262 265 281 243 248 245 244 249 253 253 262 259
16 15 13 12 10 8 5 3 360 358 355 353 348 342 327 349 353 338 338 332 323 313 303 342 11 263 331 334 267 324 312 274 266 280 285 275 287 249 252 251 244 257 241 239 242 243 254
13 11 10 7 5 4 3 1 359 356 355 353 349 346 340 352 351 350 332 331 329 154 313 329 308 302 329 332 294 281 319 276 278 279 263 251 262 234 234 248 252 255 247 234 237 239 263
10 9 6 3 2 3 1 359 357 356 354 353 351 351 349 354 354 350 344 338 335 260 339 336 316 326 331 332 268 271 301 271 282 275 252 260 257 268 254 258 256 250 215 236 222 233 242
8 5 4 3 3 2 360 358 357 357 355 354 353 345 2 357 350 346 342 337 331 31 334 317 319 325 321 314 314 316 310 295 274 299 272 301 256 239 241 232 227 186 155 179 197 198 240
2 3 3 3 2 1 359 358 357 357 356 356 353 245 3 360 347 336 343 1 16 350 310 306 317 316 302 333 324 312 302 301 252 234 276 287 301 189 185 210 203 199 193 190 212 214 247
360 358 0 2 1 1 359 358 356 357 357 354 1 258 342 351 348 340 353 51 322 332 325 316 320 314 312 322 316 313 295 293 266 198 242 280 249 239 215 214 192 183 208 207 316 247 256
354 0 1 2 2 1 0 359 357 356 359 354 357 41 358 348 350 347 59 304 269 246 323 311 307 328 316 318 320 330 308 270 277 221 208 289 280 252 304 195 186 203 196 170 217 241 233
352 352 359 1 360 358 359 359 357 355 357 357 357 4 352 351 3 48 55 293 288 295 323 295 290 288 300 308 289 288 265 283 278 279 249 206 220 307 173 204 198 187 182 191 250 238 267
349 349 351 356 356 353 353 356 357 356 357 360 2 347 349 357 35 35 13 313 295 296 315 287 275 276 279 309 272 275 251 264 290 320 254 206 271 253 238 143 131 202 200 205 220 226 234
342 345 347 347 349 347 350 353 357 357 358 354 345 316 351 16 44 356 328 298 271 309 319 308 282 283 283 294 307 257 289 278 316 313 256 186 239 279 201 215 166 204 216 220 236 271 283
336 340 341 340 339 344 349 348 355 357 1 356 355 346 358 45 90 31 339 294 314 314 295 298 281 290 302 306 291 285 287 307 311 303 298 202 242 268 274 312 148 226 208 219 226 267 311
329 331 332 330 335 341 341 344 349 355 1 8 14 46 5 325 23 338 289 272 302 331 300 307 272 312 325 301 307 269 309 315 306 296 316 268 269 261 279 262 255 244 203 194 214 228 251
323 323 326 328 334 335 336 337 342 351 360 10 13 355 336 284 292 311 240 268 306 319 278 291 285 318 313 291 303 308 310 315 282 317 313 293 297 307 297 14 206 201 185 199 251 261 239
321 321 321 324 330 332 334 336 339 347 358 10 354 340 313 279 297 295 255 297 293 321 274 251 289 307 309 321 316 298 291 267 252 308 330 299 311 325 14 324 130 130 39 323 315 306 294
319 317 318 320 326 328 328 329 329 342 351 353 352 347 341 289 281 273 288 297 286 289 271 288 308 301 308 317 316 276 202 198 232 62 5 315 321 311 338 343 320 43 22 35 321 296 325
315 314 316 318 318 320 327 330 328 331 341 341 346 344 321 286 282 287 283 293 303 296 273 280 296 319 322 325 336 332 352 354 332 43 355 347 298 301 314 341 318 21 13 351 357 328 345
310 310 313 317 316 318 319 318 319 325 332 332 332 314 293 293 247 274 308 294 303 321 308 270 319 332 348 337 345 359 9 330 334 339 334 1 326 290 356 18 353 358 321 314 282 340 345
306 308 309 312 308 312 315 317 313 318 320 323 321 293 266 271 281 290 266 299 285 290 274 294 337 327 5 357 1 351 353 344 352 346 341 345 348 17 352 353 97 354 322 308 318 5 306
298 303 306 308 303 310 314 318 310 304 307 311 316 293 259 254 284 265 261 266 278 264 275 318 334 5 337 11 353 344 315 16 339 351 334 348 332 354 309 330 22 352 345 3 305 332 99
289 293 300 305 301 302 309 304 304 304 294 303 309 304 254 269 272 292 289 273 255 256 282 289 286 298 351 343 344 299 307 346 360 332 336 316 13 308 334 337 321 322 292 302 284 250 90
Wind_Speed_850mb
52 52 51 51 51 51 52 53 53 53 53 53 55 57 58 58 57 49 41 35 29 28 29 29 32 30 27 12 3 3 16 17 17 18 13 10 10 9 10 7 13 26 35 28 23 23 28
54 54 55 54 55 55 56 56 57 57 56 57 61 64 63 58 47 35 33 32 31 32 32 30 27 23 18 5 6 5 4 7 8 5 7 7 6 9 8 10 13 5 13 21 31 49 36
55 56 56 57 57 58 59 60 60 60 60 63 66 68 62 48 34 29 30 36 32 37 27 24 26 17 4 9 10 7 4 4 7 10 7 4 10 11 1 11 13 18 24 18 28 31 29
57 58 59 59 60 61 62 63 63 63 65 68 70 65 51 39 32 25 34 42 33 35 19 25 22 6 2 11 13 12 18 24 21 21 19 16 16 14 13 13 19 20 18 16 3 22 36
58 60 62 63 64 64 65 64 64 65 68 70 67 52 42 40 30 28 36 39 39 22 20 29 9 8 2 15 29 41 33 23 24 24 20 20 13 12 8 11 12 9 18 16 13 10 15
59 62 63 65 66 67 66 66 66 67 70 70 61 43 42 33 30 30 32 37 45 18 29 12 8 6 5 18 41 46 28 25 16 17 10 15 13 15 11 15 17 13 16 16 21 8 26
60 62 64 66 69 70 69 69 69 69 71 69 59 39 35 31 28 30 30 28 29 10 43 16 20 15 30 28 36 43 31 22 16 8 14 14 17 27 38 35 35 27 32 32 25 20 22
61 62 64 66 69 72 74 72 72 72 72 67 61 32 28 32 21 30 29 21 17 22 22 23 8 19 16 21 50 32 21 8 9 16 5 11 34 40 40 36 38 40 42 38 33 29 29
60 61 63 65 68 73 76 77 76 76 75 70 64 35 26 33 21 29 30 27 29 24 9 16 12 9 12 39 35 29 6 14 17 23 22 31 37 18 25 33 39 42 43 32 39 21 33
59 61 62 65 67 72 76 78 80 79 78 72 67 42 20 32 20 33 24 36 31 12 5 9 5 2 14 51 8 36 19 12 11 24 26 30 28 36 38 45 37 46 36 36 35 19 19
58 60 63 65 68 72 76 79 83 81 80 73 66 34 18 28 29 31 39 36 13 6 7 27 6 12 56 16 43 9 25 16 30 36 22 22 19 14 27 39 36 44 32 30 32 32 29
56 60 65 67 69 71 77 82 88 84 83 73 60 20 20 27 31 37 40 25 2 3 5 13 12 40 42 41 10 18 27 15 22 17 26 51 46 29 40 34 27 8 18 16 20 19 20
57 59 64 66 68 73 81 84 89 88 83 72 52 10 18 29 31 39 39 11 3 7 14 14 25 37 42 19 22 24 32 26 16 9 9 16 29 28 21 22 11 22 18 9 13 14 28
57 59 62 65 68 75 82 87 90 90 83 71 43 6 17 31 31 34 33 3 8 4 16 26 29 43 10 23 23 22 26 27 12 20 8 7 12 19 21 24 16 27 34 12 15 17 24
57 58 59 63 68 77 82 86 90 92 84 75 36 10 14 33 31 28 12 9 5 13 19 24 35 11 15 26 13 22 16 18 8 17 7 9 13 12 24 24 16 6 23 21 8 22 17
60 57 57 62 68 77 81 86 89 93 83 74 38 4 20 37 27 21 9 3 5 7 19 13 10 5 33 40 27 24 11 9 8 10 16 4 16 17 6 16 21 8 12 12 10 10 20
59 62 55 60 69 76 82 87 88 92 84 74 29 4 26 37 16 15 6 6 10 18 24 7 14 17 25 20 21 10 14 23 15 13 14 11 13 3 9 15 18 9 7 8 10 16 11
53 57 62 66 68 74 80 85 86 88 85 76 23 5 31 35 10 7 4 11 12 13 6 10 11 16 18 28 12 14 14 13 31 23 8 15 7 10 13 10 6 23 14 30 18 19 15
50 53 57 63 68 71 76 80 80 80 78 70 30 11 17 26 7 8 13 9 9 10 16 8 12 10 18 12 16 13 20 17 39 17 10 8 7 4 7 10 1 10 28 30 25 9 21
50 51 54 59 65 67 73 74 76 73 68 54 20 9 12 21 14 4 10 7 14 19 18 12 19 21 20 32 21 21 35 18 53 42 27 14 8 9 12 9 2 10 21 27 29 13 13
48 48 50 57 63 67 69 74 73 70 63 39 21 6 6 10 5 13 6 6 12 14 11 16 9 29 39 17 36 9 43 28 24 13 11 5 7 6 24 27 26 21 17 18 23 28 13
50 50 52 57 60 66 68 68 66 65 60 28 14 11 10 12 16 15 2 3 10 15 7 13 14 42 43 19 24 47 49 32 8 11 10 6 7 12 8 9 15 15 20 21 26 20 24
51 52 53 54 57 64 71 65 59 57 53 19 23 15 6 10 7 7 3 5 15 25 17 38 38 35 35 39 66 77 55 28 16 12 11 8 11 9 8 3 10 12 6 17 18 15 22
52 54 54 55 55 59 65 60 57 48 45 34 23 17 5 8 8 8 13 29 31 21 20 36 41 22 42 83 58 12 5 12 14 12 15 11 13 7 5 5 6 9 22 13 20 23 26
55 57 56 55 49 57 61 66 54 40 36 31 23 10 5 10 14 24 16 23 32 23 14 27 23 43 54 37 13 11 4 7 4 17 21 15 8 7 6 6 4 9 17 13 14 17 28
60 57 55 51 48 52 60 59 57 38 32 29 23 13 5 12 9 14 16 17 9 11 14 15 33 42 29 11 10 13 12 12 14 29 23 16 11 6 6 4 7 8 31 39 4 5 24
64 60 55 50 47 53 59 59 50 35 30 27 23 14 5 13 18 7 11 11 9 9 10 21 30 13 22 15 12 9 7 10 14 19 16 14 11 12 12 5 5 19 49 25 10 10 36
63 58 56 52 50 51 55 51 47 39 27 27 22 20 16 14 42 22 19 24 21 14 6 19 19 5 6 10 9 7 5 8 7 5 16 10 14 8 8 6 3 50 31 15 9 41 32
62 56 58 53 50 51 51 50 52 40 27 28 24 15 13 28 40 66 57 42 43 33 20 10 10 9 11 5 6 6 5 6 9 7 7 4 8 9 7 6 16 41 34 49 30 16 18
Wind_Direction_850mb
29 27 24 22 19 17 16 15 13 10 7 1 355 351 349 346 344 346 347 354 358 353 348 339 332 336 348 346 42 240 320 312 306 295 278 245 221 203 236 236 234 241 250 247 258 280 284
27 25 22 21 18 16 15 13 11 9 6 0 354 349 345 344 351 359 0 4 354 345 339 336 338 341 352 22 24 323 344 332 322 282 265 245 219 246 267 250 246 307 296 274 264 257 261
27 24 21 19 18 16 14 12 9 7 4 359 353 348 345 352 6 6 6 358 351 342 339 344 340 338 47 63 12 333 332 341 264 247 240 282 229 215 101 278 266 284 283 277 249 242 242
25 23 21 19 17 16 14 11 8 6 3 358 355 352 358 10 11 12 1 355 347 342 347 341 338 359 187 19 8 318 292 304 289 253 255 293 240 220 224 258 266 276 280 276 329 228 224
24 22 20 19 17 15 13 11 9 5 2 359 358 2 10 8 18 10 1 358 351 349 341 335 351 342 239 8 356 339 321 299 293 272 261 268 224 231 202 248 277 245 261 250 276 265 230
23 21 19 18 16 14 13 12 8 4 1 359 359 3 3 13 16 8 3 359 352 330 342 346 359 322 211 326 342 345 337 322 275 263 262 202 208 222 218 222 252 250 254 255 260 236 228
22 20 19 18 16 15 13 11 7 3 0 359 356 357 0 3 10 6 3 1 360 335 322 276 293 268 298 321 331 323 317 305 268 218 238 208 226 237 244 236 249 261 262 262 261 272 285
21 19 18 16 14 14 12 9 6 2 358 357 352 348 359 354 341 356 351 7 349 314 300 309 286 286 329 337 318 318 313 257 212 258 230 243 246 254 256 253 248 252 257 259 263 250 257
19 17 16 14 12 11 8 6 3 1 357 354 349 340 349 350 346 345 346 343 334 326 286 301 308 293 341 333 308 308 239 293 240 265 257 262 265 281 243 248 245 244 249 253 253 262 259
16 15 13 12 10 8 5 3 360 358 355 353 348 342 327 349 353 338 338 332 323 313 303 342 11 263 331 334 267 324 312 274 266 280 285 275 287 249 252 251 244 257 241 239 242 243 254
13 11 10 7 5 4 3 1 359 356 355 353 349 346 340 352 351 350 332 331 329 154 313 329 308 302 329 332 294 281 319 276 278 279 263 251 262 234 234 248 252 255 247 234 237 239 263
10 9 6 3 2 3 1 359 357 356 354 353 351 351 349 354 354 350 344 338 335 260 339 336 316 326 331 332 268 271 301 271 282 275 252 260 257 268 254 258 256 250 215 236 222 233 242
8 5 4 3 3 2 360 358 357 357 355 354 353 345 2 357 350 346 342 337 331 31 334 317 319 325 321 314 314 316 310 295 274 299 272 301 256 239 241 232 227 186 155 179 197 198 240
2 3 3 3 2 1 359 358 357 357 356 356 353 245 3 360 347 336 343 1 16 350 310 306 317 316 302 333 324 312 302 301 252 234 276 287 301 189 185 210 203 199 193 190 212 214 247
360 358 0 2 1 1 359 358 356 357 357 354 1 258 342 351 348 340 353 51 322 332 325 316 320 314 312 322 316 313 295 293 266 198 242 280 249 239 215 214 192 183 208 207 316 247 256
354 0 1 2 2 1 0 359 357 356 359 354 357 41 358 348 350 347 59 304 269 246 323 311 307 328 316 318 320 330 308 270 277 221 208 289 280 252 304 195 186 203 196 170 217 241 233
352 352 359 1 360 358 359 359 357 355 357 357 357 4 352 351 3 48 55 293 288 295 323 295 290 288 300 308 289 288 265 283 278 279 249 206 220 307 173 204 198 187 182 191 250 238 267
349 349 351 356 356 353 353 356 357 356 357 360 2 347 349 357 35 35 13 313 295 296 315 287 275 276 279 309 272 275 251 264 290 320 254 206 271 253 238 143 131 202 200 205 220 226 234
342 345 347 347 349 347 350 353 357 357 358 354 345 316 351 16 44 356 328 298 271 309 319 308 282 283 283 294 307 257 289 278 316 313 256 186 239 279 201 215 166 204 216 220 236 271 283
336 340 341 340 339 344 349 348 355 357 1 356 355 346 358 45 90 31 339 294 314 314 295 298 281 290 302 306 291 285 287 307 311 303 298 202 242 268 274 312 148 226 208 219 226 267 311
329 331 332 330 335 341 341 344 349 355 1 8 14 46 5 325 23 338 289 272 302 331 300 307 272 312 325 301 307 269 309 315 306 296 316 268 269 261 279 262 255 244 203 194 214 228 251
323 323 326 328 334 335 336 337 342 351 360 10 13 355 336 284 292 311 240 268 306 319 278 291 285 318 313 291 303 308 310 315 282 317 313 293 297 307 297 14 206 201 185 199 251 261 239
321 321 321 324 330 332 334 336 339 347 358 10 354 340 313 279 297 295 255 297 293 321 274 251 289 307 309 321 316 298 291 267 252 308 330 299 311 325 14 324 130 130 39 323 315 306 294
319 317 318 320 326 328 328 329 329 342 351 353 352 347 341 289 281 273 288 297 286 289 271 288 308 301 308 317 316 276 202 198 232 62 5 315 321 311 338 343 320 43 22 35 321 296 325
315 314 316 318 318 320 327 330 328 331 341 341 346 344 321 286 282 287 283 293 303 296 273 280 296 319 322 325 336 332 352 354 332 43 355 347 298 301 314 341 318 21 13 351 357 328 345
310 310 313 317 316 318 319 318 319 325 332 332 332 314 293 293 247 274 308 294 303 321 308 270 319 332 348 337 345 359 9 330 334 339 334 1 326 290 356 18 353 358 321 314 282 340 345
306 308 309 312 308 312 315 317 313 318 320 323 321 293 266 271 281 290 266 299 285 290 274 294 337 327 5 357 1 351 353 344 352 346 341 345 348 17 352 353 97 354 322 308 318 5 306
298 303 306 308 303 310 314 318 310 304 307 311 316 293 259 254 284 265 261 266 278 264 275 318 334 5 337 11 353 344 315 16 339 351 334 348 332 354 309 330 22 352 345 3 305 332 99
289 293 300 305 301 302 309 304 304 304 294 303 309 304 254 269 272 292 289 273 255 256 282 289 286 298 351 343 344 299 307 346 360 332 336 316 13 308 334 337 321 322 292 302 284 250 90